Temp
-20 -20 -20 -20 -20 -20 -20 -21 -21 -20 -20 -20 -19 -19 -19 -19 -18 -18 -18 -18 -17 -17 -16 -16 -15 -14 -14 -13 -13 -12 -12 -12 -12 -12 -11 -11 -11 -11 -11 -11 -11 -11 -11 -11 -11 -11 -10 -10 -10 -10 -11 -11 -11 -11
-20 -20 -20 -20 -20 -21 -21 -21 -21 -21 -20 -20 -20 -20 -20 -19 -19 -19 -19 -19 -18 -18 -17 -17 -16 -15 -15 -14 -14 -13 -13 -12 -12 -12 -12 -11 -11 -11 -11 -11 -11 -11 -11 -11 -11 -11 -11 -11 -10 -11 -11 -11 -10 -10
-20 -20 -20 -20 -20 -21 -21 -21 -21 -21 -21 -21 -20 -20 -20 -20 -20 -19 -19 -19 -19 -19 -18 -17 -17 -16 -16 -15 -14 -14 -13 -13 -12 -12 -12 -12 -12 -11 -11 -11 -11 -11 -11 -11 -11 -11 -11 -11 -11 -11 -11 -11 -10 -10
-20 -20 -20 -21 -21 -21 -21 -21 -21 -22 -21 -21 -20 -20 -20 -20 -20 -20 -20 -20 -20 -19 -19 -18 -17 -17 -16 -16 -15 -14 -14 -14 -13 -13 -12 -12 -12 -11 -11 -11 -11 -11 -11 -11 -11 -11 -11 -11 -11 -10 -10 -10 -10 -10
-21 -21 -21 -21 -21 -21 -21 -21 -21 -22 -22 -21 -21 -20 -20 -20 -20 -20 -20 -20 -20 -19 -19 -19 -18 -18 -17 -16 -15 -15 -14 -14 -14 -13 -13 -12 -12 -12 -12 -12 -12 -11 -11 -12 -12 -12 -11 -11 -11 -11 -11 -11 -11 -11
-21 -21 -21 -21 -21 -21 -22 -21 -21 -22 -22 -21 -21 -21 -21 -21 -20 -20 -20 -20 -20 -19 -19 -19 -18 -18 -17 -17 -16 -15 -15 -14 -14 -14 -13 -13 -13 -13 -12 -13 -12 -12 -12 -12 -12 -12 -12 -12 -12 -12 -12 -12 -11 -11
-22 -22 -22 -22 -22 -22 -22 -22 -22 -22 -22 -22 -21 -21 -21 -21 -20 -20 -20 -20 -20 -19 -19 -19 -18 -18 -18 -17 -17 -16 -16 -15 -15 -14 -14 -14 -13 -13 -13 -13 -14 -14 -13 -13 -13 -13 -13 -13 -13 -13 -13 -13 -12 -12
-22 -22 -22 -22 -22 -22 -22 -22 -22 -22 -22 -22 -21 -21 -21 -21 -21 -20 -20 -20 -19 -19 -19 -19 -18 -18 -18 -17 -17 -17 -16 -16 -15 -15 -15 -14 -14 -14 -14 -14 -14 -15 -14 -14 -14 -14 -14 -14 -14 -14 -14 -13 -13 -13
-23 -23 -23 -23 -23 -23 -23 -23 -22 -22 -22 -22 -21 -21 -21 -21 -21 -20 -20 -20 -19 -19 -19 -19 -18 -18 -18 -18 -17 -17 -17 -17 -16 -16 -16 -16 -16 -15 -16 -16 -15 -15 -15 -15 -15 -16 -15 -15 -15 -14 -14 -14 -13 -13
-25 -24 -24 -23 -24 -23 -23 -23 -23 -23 -22 -22 -21 -21 -21 -21 -21 -20 -20 -20 -19 -19 -19 -19 -18 -18 -18 -18 -18 -18 -18 -17 -17 -17 -17 -17 -16 -16 -16 -16 -16 -16 -16 -16 -16 -16 -16 -16 -16 -15 -15 -15 -15 -14
-25 -25 -24 -24 -24 -24 -24 -23 -23 -23 -22 -22 -21 -21 -21 -21 -21 -20 -20 -19 -19 -19 -19 -19 -18 -18 -18 -18 -18 -18 -18 -18 -18 -17 -17 -17 -17 -17 -17 -17 -17 -17 -16 -16 -16 -16 -16 -16 -16 -16 -15 -15 -15 -14
-26 -25 -25 -25 -24 -24 -24 -23 -23 -23 -23 -22 -22 -21 -21 -21 -21 -20 -20 -19 -19 -19 -19 -19 -18 -18 -18 -18 -18 -18 -18 -18 -18 -18 -18 -18 -17 -17 -17 -17 -18 -18 -18 -18 -17 -17 -17 -17 -16 -16 -16 -15 -15 -15
-26 -26 -26 -25 -25 -24 -24 -24 -23 -23 -23 -22 -22 -22 -21 -21 -20 -20 -20 -19 -19 -19 -19 -19 -18 -18 -18 -19 -19 -19 -19 -19 -19 -18 -18 -18 -18 -18 -18 -18 -18 -19 -19 -19 -18 -18 -17 -17 -17 -16 -16 -15 -15 -15
-26 -26 -25 -25 -25 -25 -24 -24 -23 -23 -23 -22 -22 -22 -21 -21 -20 -20 -20 -19 -19 -19 -19 -19 -19 -19 -19 -19 -19 -19 -19 -19 -18 -18 -18 -18 -18 -18 -18 -19 -19 -19 -19 -19 -19 -18 -18 -17 -17 -16 -15 -15 -15 -15
-27 -26 -25 -25 -25 -24 -24 -23 -23 -23 -22 -22 -22 -21 -21 -20 -20 -20 -19 -19 -19 -19 -19 -19 -19 -19 -19 -19 -19 -19 -19 -18 -18 -18 -17 -18 -18 -18 -18 -19 -19 -18 -19 -18 -18 -18 -18 -17 -16 -16 -15 -15 -16 -15
-26 -26 -25 -25 -25 -24 -24 -23 -23 -23 -22 -22 -21 -21 -21 -20 -20 -20 -20 -19 -19 -19 -19 -19 -19 -19 -19 -19 -19 -18 -18 -18 -18 -18 -18 -18 -17 -17 -17 -18 -17 -18 -18 -18 -17 -17 -17 -17 -16 -16 -16 -16 -15 -15
-26 -26 -25 -25 -25 -24 -24 -23 -23 -22 -22 -21 -21 -21 -20 -20 -20 -20 -19 -19 -19 -19 -19 -19 -19 -19 -19 -18 -18 -18 -18 -17 -17 -17 -17 -17 -17 -17 -17 -17 -17 -17 -17 -17 -18 -17 -17 -17 -16 -16 -16 -16 -15 -15
-26 -25 -25 -25 -24 -24 -23 -23 -22 -22 -22 -21 -21 -21 -20 -20 -20 -19 -19 -19 -19 -19 -19 -19 -19 -19 -18 -17 -17 -17 -18 -17 -17 -17 -17 -17 -16 -16 -17 -16 -17 -17 -17 -17 -17 -17 -16 -16 -16 -16 -16 -17 -16 -16
-25 -25 -25 -24 -24 -23 -23 -22 -22 -22 -21 -21 -21 -20 -20 -19 -19 -19 -19 -19 -18 -19 -19 -18 -18 -18 -17 -17 -17 -17 -17 -17 -16 -16 -16 -16 -16 -17 -17 -17 -17 -17 -17 -17 -17 -17 -17 -17 -17 -17 -17 -17 -17 -17
-25 -24 -24 -24 -23 -23 -22 -22 -22 -21 -21 -21 -20 -20 -20 -19 -19 -19 -19 -18 -18 -18 -18 -18 -18 -17 -17 -17 -17 -17 -17 -16 -16 -16 -16 -16 -17 -17 -17 -17 -17 -17 -17 -17 -17 -17 -17 -17 -17 -17 -17 -16 -16 -16
-24 -24 -23 -23 -23 -22 -22 -22 -21 -21 -20 -20 -20 -20 -19 -19 -19 -19 -19 -18 -18 -18 -18 -18 -17 -17 -17 -17 -17 -17 -16 -16 -16 -16 -16 -16 -17 -17 -17 -17 -17 -17 -17 -16 -16 -16 -16 -16 -17 -16 -17 -17 -16 -16
-24 -23 -23 -22 -22 -22 -21 -21 -21 -20 -20 -20 -19 -19 -19 -19 -19 -19 -18 -18 -18 -18 -18 -17 -17 -17 -17 -17 -17 -16 -16 -16 -16 -16 -16 -16 -17 -16 -16 -16 -17 -17 -17 -16 -16 -16 -16 -16 -16 -16 -16 -17 -17 -16
-23 -22 -22 -22 -21 -21 -21 -20 -20 -20 -20 -19 -19 -19 -19 -18 -19 -19 -18 -18 -18 -18 -17 -17 -16 -16 -16 -16 -16 -16 -16 -16 -16 -16 -16 -16 -16 -17 -17 -17 -17 -17 -16 -16 -16 -16 -16 -16 -16 -16 -17 -17 -17 -17
-22 -21 -21 -21 -21 -20 -20 -20 -20 -20 -19 -19 -19 -18 -18 -18 -18 -18 -18 -18 -17 -17 -16 -16 -16 -16 -16 -16 -16 -16 -16 -16 -16 -16 -16 -16 -16 -16 -16 -17 -17 -17 -17 -17 -17 -17 -17 -17 -17 -17 -17 -17 -17 -17
-21 -21 -21 -20 -20 -20 -20 -20 -19 -19 -19 -19 -19 -18 -18 -18 -18 -18 -18 -17 -17 -17 -17 -17 -16 -16 -16 -16 -16 -16 -16 -16 -16 -16 -16 -16 -16 -17 -17 -17 -17 -17 -17 -17 -17 -17 -17 -17 -18 -18 -17 -17 -17 -17
-20 -20 -20 -20 -20 -20 -19 -19 -19 -19 -18 -18 -18 -18 -18 -17 -17 -17 -17 -17 -17 -17 -17 -17 -16 -16 -16 -16 -16 -17 -17 -17 -17 -17 -17 -17 -17 -17 -17 -17 -17 -17 -17 -17 -17 -17 -17 -17 -17 -17 -18 -18 -18 -18
-20 -20 -20 -19 -19 -19 -19 -19 -19 -18 -18 -18 -18 -18 -18 -17 -17 -17 -17 -17 -17 -17 -17 -17 -17 -17 -17 -17 -17 -17 -16 -16 -17 -17 -17 -17 -17 -17 -17 -17 -17 -17 -17 -17 -17 -17 -17 -17 -18 -18 -18 -18 -18 -18
-19 -19 -19 -19 -19 -19 -18 -18 -18 -18 -18 -18 -18 -18 -17 -17 -17 -17 -17 -17 -17 -17 -17 -17 -17 -17 -17 -17 -17 -17 -17 -17 -17 -17 -17 -17 -17 -17 -17 -17 -17 -17 -17 -17 -17 -17 -18 -18 -18 -18 -18 -18 -18 -18
-19 -19 -19 -19 -18 -18 -18 -18 -18 -18 -18 -18 -18 -17 -17 -17 -17 -17 -17 -17 -17 -17 -17 -17 -17 -17 -17 -17 -17 -17 -17 -17 -17 -17 -17 -17 -17 -17 -17 -17 -17 -17 -17 -17 -18 -18 -18 -18 -18 -18 -18 -18 -18 -18
-19 -19 -18 -18 -18 -18 -18 -17 -17 -18 -18 -17 -17 -17 -17 -17 -17 -17 -17 -17 -17 -17 -17 -17 -17 -17 -17 -17 -17 -17 -17 -17 -17 -17 -18 -18 -18 -18 -18 -18 -18 -18 -18 -18 -18 -19 -19 -19 -19 -19 -19 -19 -19 -19
-18 -18 -18 -18 -18 -17 -17 -17 -18 -18 -18 -18 -18 -18 -18 -18 -18 -18 -18 -18 -17 -17 -17 -17 -17 -17 -18 -18 -18 -18 -18 -18 -18 -18 -18 -18 -18 -18 -18 -18 -18 -18 -19 -19 -19 -19 -19 -19 -19 -19 -19 -19 -19 -19
-18 -18 -18 -18 -18 -18 -18 -18 -18 -18 -18 -18 -18 -18 -18 -18 -17 -17 -17 -17 -17 -17 -17 -17 -17 -17 -17 -18 -18 -17 -17 -17 -17 -17 -18 -18 -18 -18 -19 -19 -20 -20 -20 -20 -20 -20 -20 -19 -19 -19 -19 -19 -19 -19
-18 -18 -18 -18 -18 -18 -18 -18 -18 -18 -18 -18 -18 -18 -18 -18 -18 -18 -18 -17 -18 -17 -18 -18 -18 -17 -18 -17 -17 -17 -17 -17 -17 -18 -18 -18 -19 -19 -20 -20 -21 -21 -20 -20 -20 -20 -19 -19 -19 -19 -19 -19 -19 -19
Height
5653 5652 5651 5650 5649 5648 5648 5649 5650 5651 5655 5659 5662 5667 5670 5673 5676 5678 5681 5683 5687 5690 5693 5698 5704 5710 5716 5721 5727 5733 5741 5746 5752 5757 5764 5769 5775 5778 5785 5790 5793 5799 5801 5805 5809 5811 5816 5817 5821 5824 5826 5827 5828 5829
5645 5644 5643 5642 5642 5642 5641 5642 5643 5645 5648 5652 5656 5660 5665 5668 5670 5673 5675 5677 5679 5683 5687 5689 5694 5700 5706 5712 5718 5723 5730 5737 5741 5749 5753 5758 5766 5769 5777 5780 5784 5790 5792 5797 5799 5804 5805 5808 5811 5814 5816 5818 5820 5821
5636 5635 5635 5635 5634 5635 5635 5636 5637 5639 5642 5646 5650 5654 5659 5663 5665 5668 5670 5672 5674 5676 5679 5683 5687 5692 5697 5703 5708 5714 5719 5727 5731 5737 5743 5749 5755 5761 5766 5771 5773 5778 5783 5785 5790 5792 5794 5797 5800 5804 5807 5810 5813 5814
5627 5627 5627 5627 5627 5627 5628 5629 5631 5633 5636 5640 5644 5649 5654 5658 5661 5664 5666 5668 5670 5672 5674 5677 5680 5685 5689 5694 5699 5705 5711 5716 5722 5727 5732 5737 5743 5749 5753 5758 5765 5764 5773 5775 5780 5780 5783 5785 5790 5794 5798 5801 5804 5806
5616 5617 5618 5619 5620 5620 5622 5623 5625 5627 5631 5634 5639 5644 5649 5653 5657 5660 5662 5665 5667 5669 5670 5672 5675 5679 5684 5688 5693 5698 5702 5707 5712 5717 5721 5725 5731 5738 5741 5747 5752 5754 5759 5764 5767 5768 5773 5775 5780 5784 5788 5791 5794 5797
5604 5606 5608 5610 5612 5613 5615 5617 5619 5622 5626 5629 5634 5639 5645 5649 5653 5656 5660 5662 5664 5665 5668 5669 5672 5675 5679 5683 5687 5691 5695 5700 5703 5707 5711 5715 5720 5726 5731 5735 5737 5743 5746 5751 5753 5758 5761 5765 5768 5772 5776 5780 5784 5787
5592 5595 5598 5601 5603 5606 5608 5611 5614 5617 5621 5625 5629 5635 5640 5645 5649 5654 5658 5660 5661 5663 5665 5667 5669 5673 5676 5680 5683 5686 5689 5692 5696 5698 5702 5705 5709 5712 5717 5723 5726 5728 5733 5737 5741 5746 5749 5753 5757 5761 5765 5768 5772 5777
5580 5584 5588 5592 5595 5598 5601 5604 5608 5611 5616 5620 5625 5631 5636 5641 5646 5651 5654 5657 5659 5662 5664 5666 5668 5671 5675 5678 5680 5682 5685 5687 5689 5691 5694 5695 5698 5701 5704 5708 5713 5717 5720 5724 5729 5733 5738 5742 5745 5749 5753 5757 5761 5765
5568 5573 5578 5583 5586 5590 5594 5598 5602 5606 5611 5616 5621 5627 5633 5638 5643 5647 5651 5654 5657 5661 5662 5664 5667 5670 5673 5675 5677 5679 5680 5682 5684 5686 5687 5690 5690 5692 5694 5696 5699 5703 5706 5710 5716 5721 5725 5730 5735 5738 5742 5746 5750 5754
5555 5562 5568 5573 5578 5583 5587 5592 5597 5602 5607 5612 5618 5624 5630 5635 5639 5644 5648 5651 5654 5657 5660 5662 5665 5667 5671 5672 5674 5676 5676 5677 5679 5681 5682 5683 5684 5686 5687 5688 5689 5692 5695 5699 5703 5709 5714 5719 5726 5730 5732 5737 5740 5744
5545 5552 5558 5565 5570 5576 5581 5587 5593 5598 5604 5609 5615 5621 5627 5632 5636 5641 5645 5649 5652 5655 5658 5660 5662 5665 5667 5669 5670 5671 5672 5673 5674 5676 5676 5677 5678 5679 5680 5680 5681 5682 5684 5687 5691 5696 5702 5709 5716 5722 5726 5728 5732 5736
5536 5544 5551 5558 5564 5570 5576 5583 5589 5595 5601 5607 5613 5619 5624 5629 5634 5638 5642 5646 5649 5653 5655 5657 5659 5661 5663 5664 5666 5667 5667 5668 5669 5670 5670 5672 5672 5672 5672 5672 5672 5672 5674 5676 5680 5684 5691 5699 5706 5713 5717 5722 5726 5728
5531 5539 5546 5553 5559 5566 5573 5579 5586 5592 5599 5605 5611 5617 5622 5628 5632 5636 5639 5644 5647 5650 5653 5655 5657 5658 5660 5661 5662 5663 5663 5664 5664 5665 5665 5665 5666 5666 5664 5664 5664 5664 5665 5667 5670 5675 5681 5689 5698 5704 5709 5714 5718 5720
5528 5536 5543 5549 5556 5563 5570 5578 5584 5591 5598 5604 5610 5616 5621 5626 5630 5634 5638 5642 5645 5648 5650 5653 5654 5656 5657 5659 5659 5660 5660 5660 5661 5661 5662 5661 5659 5659 5657 5655 5655 5657 5658 5661 5664 5668 5674 5681 5689 5696 5702 5706 5709 5713
5527 5534 5541 5548 5555 5562 5570 5577 5584 5591 5597 5603 5609 5615 5621 5626 5630 5634 5637 5641 5644 5646 5648 5650 5652 5654 5655 5656 5657 5658 5658 5658 5658 5659 5658 5656 5654 5652 5651 5650 5650 5652 5654 5655 5659 5664 5669 5675 5682 5688 5693 5698 5703 5707
5528 5534 5541 5549 5556 5563 5571 5578 5584 5591 5598 5604 5610 5616 5621 5625 5629 5633 5636 5639 5642 5644 5646 5648 5650 5652 5653 5654 5655 5656 5656 5656 5656 5654 5652 5651 5648 5646 5646 5646 5648 5650 5651 5653 5657 5662 5667 5672 5677 5682 5687 5693 5697 5700
5530 5537 5544 5552 5559 5566 5573 5580 5587 5594 5600 5606 5611 5616 5620 5625 5629 5632 5635 5638 5641 5643 5645 5647 5649 5651 5652 5653 5654 5655 5655 5654 5652 5650 5648 5646 5644 5643 5643 5644 5646 5648 5651 5654 5656 5660 5666 5670 5675 5679 5683 5686 5689 5693
5536 5543 5549 5556 5563 5570 5577 5584 5591 5597 5602 5607 5612 5617 5621 5625 5628 5631 5634 5637 5640 5642 5644 5645 5647 5649 5650 5652 5654 5654 5653 5652 5650 5648 5646 5646 5644 5643 5642 5640 5645 5648 5651 5654 5657 5660 5663 5667 5669 5673 5676 5679 5684 5686
5543 5549 5555 5562 5569 5576 5583 5589 5595 5600 5605 5609 5614 5618 5622 5626 5629 5632 5635 5638 5640 5642 5643 5644 5646 5648 5650 5652 5653 5653 5653 5651 5650 5649 5648 5647 5647 5646 5645 5645 5647 5650 5653 5656 5658 5660 5662 5665 5666 5669 5673 5676 5679 5682
5552 5556 5563 5569 5576 5582 5588 5594 5598 5602 5607 5612 5616 5620 5623 5626 5630 5632 5635 5638 5640 5641 5643 5644 5646 5648 5650 5652 5653 5653 5652 5651 5651 5650 5649 5650 5650 5650 5649 5650 5651 5654 5657 5658 5660 5662 5663 5665 5666 5669 5671 5675 5678 5680
5560 5565 5572 5577 5583 5588 5593 5597 5602 5607 5611 5615 5619 5622 5625 5628 5631 5634 5636 5638 5640 5641 5643 5644 5647 5649 5651 5653 5653 5652 5652 5652 5652 5651 5650 5652 5654 5654 5654 5656 5658 5659 5660 5661 5662 5663 5664 5666 5668 5671 5674 5676 5678 5680
5568 5574 5580 5584 5589 5594 5598 5603 5608 5611 5615 5618 5622 5625 5628 5630 5633 5635 5636 5638 5640 5642 5644 5646 5649 5651 5652 5652 5653 5653 5653 5654 5654 5655 5656 5655 5656 5658 5659 5660 5662 5664 5665 5665 5666 5667 5668 5669 5671 5672 5673 5675 5676 5678
5578 5583 5587 5592 5597 5601 5606 5608 5612 5615 5619 5622 5625 5627 5630 5632 5633 5635 5637 5639 5642 5644 5646 5649 5651 5651 5652 5653 5653 5654 5655 5656 5657 5659 5659 5660 5660 5662 5663 5664 5665 5666 5667 5667 5667 5667 5668 5669 5670 5671 5672 5674 5675 5677
5589 5593 5597 5601 5604 5607 5610 5613 5617 5620 5622 5625 5627 5630 5632 5633 5635 5637 5639 5641 5644 5647 5649 5650 5651 5652 5652 5652 5653 5654 5655 5658 5660 5662 5663 5663 5663 5664 5665 5666 5667 5668 5669 5670 5671 5671 5672 5673 5674 5675 5677 5678 5679 5680
5600 5604 5606 5608 5610 5613 5616 5619 5621 5624 5626 5628 5630 5632 5635 5637 5640 5642 5644 5646 5648 5650 5651 5652 5652 5653 5654 5656 5657 5659 5660 5662 5664 5666 5667 5667 5668 5669 5670 5671 5673 5674 5674 5675 5676 5677 5677 5678 5678 5678 5679 5679 5680 5680
5608 5610 5613 5614 5616 5618 5621 5623 5625 5627 5629 5632 5634 5635 5638 5641 5644 5646 5649 5650 5651 5653 5655 5657 5658 5659 5661 5662 5664 5665 5666 5668 5669 5672 5673 5673 5674 5675 5675 5676 5677 5678 5678 5679 5679 5679 5679 5680 5680 5680 5680 5681 5682 5682
5615 5617 5618 5620 5621 5623 5625 5627 5629 5632 5634 5636 5638 5641 5643 5646 5648 5651 5653 5655 5657 5659 5661 5663 5664 5666 5667 5669 5671 5672 5673 5674 5675 5676 5677 5678 5678 5679 5679 5680 5680 5680 5680 5681 5681 5681 5680 5680 5680 5680 5681 5682 5682 5682
5621 5622 5623 5625 5626 5628 5630 5633 5635 5637 5639 5642 5645 5648 5650 5652 5654 5656 5659 5661 5663 5665 5667 5669 5670 5672 5673 5675 5676 5677 5678 5679 5679 5680 5680 5681 5681 5681 5681 5681 5681 5681 5680 5680 5680 5679 5679 5680 5680 5680 5681 5681 5680 5680
5626 5627 5629 5631 5633 5636 5638 5640 5642 5644 5647 5650 5652 5655 5656 5658 5660 5662 5665 5667 5669 5671 5672 5674 5676 5677 5678 5679 5680 5681 5681 5682 5682 5682 5682 5682 5682 5682 5682 5681 5681 5680 5679 5679 5679 5679 5679 5679 5679 5679 5679 5679 5678 5677
5634 5635 5638 5640 5642 5644 5647 5649 5649 5651 5655 5657 5660 5662 5664 5666 5667 5669 5671 5673 5675 5676 5678 5678 5679 5680 5681 5682 5682 5683 5683 5683 5683 5683 5683 5682 5681 5681 5680 5679 5679 5678 5678 5678 5677 5677 5677 5677 5677 5677 5677 5676 5675 5673
5643 5644 5646 5648 5650 5652 5654 5656 5657 5660 5662 5665 5666 5667 5669 5672 5674 5676 5677 5678 5679 5680 5681 5681 5682 5683 5683 5683 5683 5683 5683 5682 5681 5681 5680 5680 5679 5678 5677 5676 5676 5675 5675 5675 5675 5675 5675 5675 5675 5674 5673 5672 5671 5668
5650 5652 5654 5656 5658 5660 5661 5663 5665 5667 5668 5670 5672 5674 5675 5677 5678 5679 5681 5681 5682 5682 5683 5683 5683 5684 5683 5683 5682 5682 5681 5680 5679 5678 5677 5675 5674 5673 5672 5672 5672 5672 5672 5672 5673 5673 5673 5672 5672 5671 5669 5667 5665 5663
5657 5658 5660 5662 5663 5665 5667 5669 5670 5671 5673 5674 5675 5677 5678 5679 5680 5681 5682 5682 5683 5683 5683 5683 5683 5683 5682 5681 5681 5680 5679 5678 5677 5676 5675 5674 5672 5671 5670 5670 5669 5670 5670 5671 5671 5671 5670 5669 5668 5666 5664 5662 5660 5657
Wind_Speed
26 24 23 21 20 21 20 20 24 22 24 26 26 25 23 21 20 20 20 21 23 26 31 39 41 42 44 45 45 44 43 43 42 42 41 41 40 43 40 40 41 39 39 39 38 39 37 36 33 29 27 26 26 29
27 24 23 23 20 20 19 18 22 22 22 24 25 24 22 20 19 18 17 18 19 22 26 33 37 40 41 42 45 44 44 43 44 41 44 44 41 42 38 39 38 39 40 39 41 39 40 38 36 33 31 30 28 27
28 25 24 23 21 18 19 18 20 23 21 23 24 23 21 19 18 17 16 15 16 17 21 25 30 32 36 40 42 43 45 44 45 44 44 43 42 42 42 42 43 41 40 40 38 40 40 40 40 38 36 34 30 28
27 26 25 22 21 18 19 18 18 22 22 22 24 23 21 19 18 16 15 13 13 14 16 20 23 27 30 34 38 40 40 41 43 44 44 44 44 44 46 46 43 48 42 43 41 42 41 41 41 40 38 36 34 31
28 28 26 22 21 17 19 19 17 21 23 23 24 23 21 20 19 17 15 13 12 13 13 18 20 23 25 28 30 33 36 38 39 41 44 45 45 41 44 43 43 45 44 42 43 46 43 42 40 39 39 38 35 34
30 29 27 23 22 18 18 20 17 20 23 22 24 25 22 20 20 18 15 14 12 11 13 14 19 20 20 21 23 27 30 33 36 37 40 41 42 42 42 43 46 45 46 45 46 44 43 42 41 40 39 38 37 35
30 27 25 24 24 21 20 21 18 20 24 22 24 26 23 21 21 19 17 15 12 11 12 12 17 18 17 16 17 19 21 24 28 32 36 38 40 42 43 42 34 38 46 45 45 44 44 43 43 41 40 38 37 36
30 28 27 25 23 23 21 22 19 21 25 23 24 26 24 22 21 20 18 16 13 12 13 13 13 14 13 11 11 14 15 16 19 23 26 30 33 37 41 42 43 40 40 44 44 42 39 38 42 43 41 41 40 38
31 31 30 29 25 21 23 23 20 22 25 23 24 27 25 22 22 21 19 17 15 13 13 15 15 14 12 10 10 11 15 15 15 14 16 18 19 24 25 29 34 39 42 44 42 38 36 35 27 32 36 38 40 40
31 35 34 32 29 21 25 23 22 23 26 23 24 27 25 22 21 21 20 18 16 13 12 11 14 14 14 11 10 10 11 13 14 14 15 16 17 17 19 20 24 29 35 40 41 41 42 40 37 26 24 25 28 30
32 33 31 30 23 22 26 24 25 24 26 24 25 27 24 22 21 21 20 19 17 14 12 10 11 12 12 11 10 11 10 14 15 15 16 15 17 18 20 23 25 27 31 36 39 41 45 43 37 30 24 22 25 30
32 30 28 23 19 25 27 26 27 27 27 25 26 27 24 22 20 20 21 19 16 14 13 12 12 11 11 10 10 12 14 15 17 18 17 16 19 19 20 20 23 25 29 33 37 40 41 44 43 34 31 26 24 25
30 29 23 17 21 27 27 28 27 30 27 25 26 26 24 22 20 19 19 18 15 14 12 11 10 10 9 9 10 10 10 12 12 12 14 16 17 18 20 21 22 24 28 31 33 38 40 36 38 33 28 29 31 31
30 26 25 18 26 29 29 30 28 31 28 26 25 25 24 22 18 17 17 16 14 12 11 10 11 10 10 8 8 6 5 5 7 8 10 15 20 20 20 20 21 22 21 24 29 30 31 29 34 35 32 35 35 31
24 22 20 25 30 30 32 29 29 30 28 27 25 24 22 18 16 15 14 14 13 12 11 11 10 9 8 6 6 6 5 4 2 7 12 15 17 17 15 15 11 16 17 19 23 30 30 32 34 37 39 39 32 26
24 24 27 31 32 32 32 29 29 28 26 25 22 22 20 17 16 15 14 14 14 12 11 11 13 11 6 6 6 3 2 4 8 11 13 16 18 15 11 12 11 11 11 12 23 30 24 26 28 32 34 32 28 24
28 32 33 32 32 34 32 30 28 25 24 23 21 21 19 17 17 16 15 14 13 12 12 10 9 8 9 9 6 4 2 5 9 13 13 7 4 3 9 11 14 14 13 9 7 10 14 16 17 19 22 23 25 22
33 32 32 32 35 34 31 29 26 23 23 22 21 20 18 18 18 16 15 13 12 11 9 8 9 10 11 10 8 6 3 5 8 8 10 8 8 7 1 5 17 15 13 13 13 12 13 14 17 18 18 21 21 23
31 30 32 34 33 31 29 27 25 22 21 21 20 19 18 17 15 15 13 13 10 6 6 7 10 11 12 10 7 2 3 5 3 8 6 5 6 6 5 5 11 15 12 10 10 11 14 17 18 17 17 16 19 21
28 30 34 32 30 30 28 25 24 23 23 21 19 18 18 16 15 13 14 11 7 6 7 8 9 11 12 9 3 4 4 4 7 5 5 8 6 7 10 12 14 14 10 6 7 10 14 9 9 13 17 12 8 18
27 32 33 30 29 28 26 25 23 21 20 19 19 18 16 14 14 13 10 7 6 9 8 10 11 13 10 6 3 2 4 1 4 7 12 13 11 9 12 15 16 14 11 10 15 17 15 13 15 13 16 16 16 15
33 34 31 29 29 27 25 22 21 20 19 19 17 15 15 16 13 9 7 8 11 10 12 13 14 11 7 3 4 4 5 7 9 12 11 12 14 15 9 9 10 11 8 7 5 5 6 5 5 6 9 11 11 12
34 31 29 28 26 23 22 21 20 21 19 16 15 17 15 11 8 8 13 18 18 19 15 14 11 8 7 6 3 4 6 9 11 14 12 13 14 13 13 12 10 9 6 4 3 2 4 6 8 11 12 13 13 12
29 28 27 25 23 22 21 21 19 17 15 17 16 13 11 11 15 17 19 21 20 17 13 10 8 7 4 4 9 11 14 18 18 14 10 9 11 12 12 12 13 14 16 18 20 20 19 17 16 15 13 12 10 8
27 25 24 22 21 21 19 17 15 18 15 14 14 16 19 21 21 22 20 19 18 16 12 9 10 15 18 20 19 19 20 20 16 13 16 21 22 22 21 20 18 16 15 16 15 14 12 10 9 8 6 5 6 7
23 22 21 20 18 17 17 16 13 13 16 19 20 20 21 23 24 25 19 17 19 21 22 23 25 25 26 27 26 26 25 24 21 19 17 17 16 15 14 14 14 13 10 8 7 6 4 4 4 5 7 9 10 7
19 19 18 18 16 13 12 16 21 23 24 23 24 22 22 24 25 23 24 26 26 26 25 23 23 23 22 21 20 18 17 17 18 15 13 13 13 12 10 9 8 7 6 4 3 2 1 2 4 6 8 8 3 2
14 13 13 15 19 22 23 25 27 27 26 26 25 24 25 26 28 27 27 27 27 26 24 23 24 24 22 19 18 16 14 12 11 10 9 7 6 5 5 4 3 2 1 1 1 1 3 3 4 8 6 2 2 5
19 20 23 25 27 27 27 28 27 27 27 28 26 27 28 28 28 27 25 24 23 21 21 20 18 16 14 12 11 11 10 9 8 6 5 3 2 1 1 2 3 3 2 0 2 2 2 3 5 5 3 4 6 8
24 24 26 27 28 30 29 28 28 26 25 26 24 23 24 24 24 22 21 19 18 16 16 15 14 12 11 9 8 7 5 5 4 3 2 3 3 4 5 5 6 4 3 3 4 4 3 4 4 5 7 8 10 12
25 24 24 24 24 26 27 27 27 26 22 21 21 22 22 20 18 17 16 15 14 12 11 10 8 7 6 4 2 2 3 4 6 7 8 8 9 9 9 9 8 6 6 6 6 5 5 5 6 7 9 11 14 18
24 22 23 23 22 22 21 20 19 17 16 16 15 16 16 15 15 13 10 9 9 7 6 4 2 1 2 3 4 5 6 8 10 11 12 12 12 12 12 11 9 8 7 7 6 6 6 7 8 10 13 17 20 22
21 20 19 16 15 14 14 15 14 14 13 13 13 12 11 10 7 4 3 4 3 3 4 2 2 3 4 5 7 8 9 9 9 8 6 5 5 5 4 2 1 3 4 4 5 5 7 9 11 15 17 19 22 23
Wind_Direction
295 290 294 303 292 279 274 274 249 239 236 231 224 225 229 234 238 241 240 235 234 232 231 228 226 226 225 225 226 227 228 227 228 228 229 232 232 237 232 236 237 239 241 244 244 247 248 253 256 256 260 261 255 257
293 285 287 292 294 276 272 278 253 236 231 227 222 222 228 233 235 237 239 240 241 237 234 229 228 226 226 227 228 227 229 229 231 231 232 233 233 238 237 240 239 239 239 242 244 250 250 252 257 255 254 255 259 265
290 278 281 287 289 276 269 266 256 235 228 224 219 218 224 228 226 232 235 239 242 237 231 230 228 227 227 227 230 230 230 230 231 232 235 235 236 237 238 238 241 242 243 243 247 247 249 250 251 252 255 258 259 259
281 272 273 280 283 272 265 258 256 235 222 221 216 213 219 222 221 225 222 227 237 238 231 226 224 226 226 226 227 230 232 233 233 235 236 236 237 236 237 239 238 241 242 245 246 249 249 249 250 252 254 255 255 258
272 265 268 270 273 268 262 254 253 233 219 216 211 208 213 216 214 214 215 219 221 223 223 217 214 215 218 221 223 226 230 233 235 236 238 239 240 238 239 241 241 240 240 241 241 246 247 250 252 252 253 254 255 255
263 259 258 259 260 262 258 249 246 230 215 212 207 203 208 210 207 207 208 208 212 213 209 208 204 202 206 211 215 220 225 229 233 236 238 240 242 242 241 241 245 245 243 241 242 245 247 249 250 251 252 252 253 254
251 249 249 248 249 255 254 242 236 226 212 208 202 200 204 206 204 203 202 203 205 203 201 199 194 191 191 197 205 212 219 226 232 235 238 239 239 240 241 239 238 241 242 245 245 244 244 244 246 247 247 248 250 251
243 241 240 234 243 251 244 234 228 221 209 204 199 196 201 204 201 199 200 200 199 198 198 194 186 184 189 201 213 218 221 225 230 235 238 241 243 242 242 240 238 238 240 241 243 247 247 244 244 243 244 243 245 246
242 233 231 227 239 244 228 224 220 214 202 198 195 193 198 201 200 198 198 199 201 200 200 204 204 203 208 214 222 223 223 226 227 232 238 241 243 245 244 242 240 239 237 238 236 237 236 233 239 238 240 241 242 242
233 227 223 223 232 235 221 214 210 206 195 192 190 190 196 199 198 198 199 200 204 204 204 207 209 211 218 221 226 228 230 231 237 243 247 245 245 248 251 251 248 243 239 237 234 228 225 230 230 234 221 229 238 236
221 223 221 220 214 225 212 203 200 196 188 187 186 188 193 195 197 199 201 204 207 209 210 212 212 214 216 220 229 231 237 238 247 255 256 250 253 252 253 256 259 252 242 236 232 228 223 224 225 225 223 227 233 237
210 216 215 203 205 211 198 194 191 188 181 183 184 187 191 194 196 198 201 206 210 208 209 212 213 214 219 232 245 251 248 253 253 250 252 257 253 259 266 269 267 257 241 232 228 225 223 224 220 221 225 226 233 232
202 208 198 202 204 194 188 184 183 181 177 177 181 187 191 193 196 197 201 205 207 207 209 215 215 218 232 242 246 251 259 261 251 240 234 243 252 262 267 262 260 254 243 231 224 219 217 222 220 220 224 221 228 232
186 184 192 200 187 180 178 174 178 176 177 178 180 185 189 191 192 197 199 200 201 204 208 212 216 226 221 224 237 253 266 259 230 242 252 262 267 271 266 263 250 248 248 238 219 206 200 201 212 223 225 223 225 228
174 183 188 182 174 171 168 167 173 175 179 180 182 185 185 184 188 191 192 193 199 205 210 209 211 203 201 206 204 212 220 217 276 272 270 276 284 269 258 246 247 244 246 229 213 200 196 201 207 213 219 221 224 224
174 175 173 167 165 163 162 166 169 172 175 177 179 177 177 180 184 186 186 191 196 201 210 202 191 191 194 196 197 197 221 245 275 274 266 269 275 277 239 225 222 232 225 232 204 206 210 214 218 218 218 223 226 231
161 159 158 159 158 160 162 163 163 165 168 172 171 175 178 180 181 184 187 189 189 189 182 184 192 196 194 180 173 185 238 261 274 272 276 309 295 234 205 205 222 221 207 207 212 205 215 218 222 226 227 229 234 233
147 150 152 154 156 159 159 157 155 157 161 165 167 170 172 175 177 181 182 185 184 182 189 197 193 192 179 170 180 205 277 288 298 353 21 5 31 56 55 181 192 190 182 188 195 194 193 203 203 203 214 217 218 218
141 144 148 150 153 153 151 148 149 151 156 157 161 164 165 168 173 173 178 174 170 172 176 176 181 175 170 173 180 220 284 290 58 57 55 73 40 67 87 129 133 162 174 173 184 205 208 206 202 204 206 198 213 221
134 140 145 145 146 146 147 147 150 151 152 154 153 154 158 162 166 168 162 165 172 164 167 178 175 171 168 167 192 258 245 102 47 73 90 127 107 104 108 112 127 136 135 153 179 180 163 149 197 186 169 144 175 218
132 139 139 137 140 144 148 150 150 145 142 143 146 148 151 158 157 155 158 169 171 162 154 165 165 168 165 185 218 204 100 33 83 65 139 91 110 111 120 123 117 114 104 78 118 148 136 146 121 142 149 153 162 173
131 135 137 140 143 147 146 140 134 136 138 139 142 144 143 143 148 158 168 172 158 151 147 144 160 164 182 181 173 131 95 97 125 130 82 94 112 130 138 125 143 137 141 120 114 114 122 140 175 192 197 209 216 225
130 134 137 139 138 136 133 132 132 133 136 137 134 133 137 144 161 148 139 140 134 129 134 151 162 179 171 165 149 147 136 130 126 130 103 96 96 109 131 153 158 172 184 181 167 158 140 138 138 133 133 130 127 127
126 128 130 130 130 130 130 130 132 131 129 131 132 134 132 127 124 124 130 128 125 135 147 155 152 156 174 154 134 129 130 135 139 135 109 109 112 118 121 121 122 120 118 117 112 108 105 106 108 110 112 116 117 117
121 123 124 126 126 127 128 130 131 130 135 134 130 133 133 126 123 119 121 128 132 135 137 132 118 114 115 118 119 120 120 125 128 125 118 113 112 111 111 110 110 112 115 116 114 116 116 113 113 112 110 111 115 116
117 119 120 122 125 128 130 130 131 132 133 134 135 130 127 134 133 127 128 125 124 122 119 114 112 110 112 112 112 113 113 112 109 109 111 108 107 109 113 115 116 116 116 118 118 117 112 106 114 128 138 138 132 123
115 118 120 122 126 131 133 131 129 129 127 125 125 124 130 137 131 128 124 120 122 122 121 121 119 117 113 110 109 109 108 108 111 114 113 112 113 113 113 114 119 128 136 137 128 123 138 151 146 145 145 140 120 57
118 128 129 127 123 122 124 128 127 121 119 129 131 131 134 134 131 129 128 124 124 122 123 122 119 114 112 109 105 101 96 95 98 102 107 112 118 125 134 138 148 175 196 313 286 158 151 161 176 163 165 169 326 329
114 117 121 122 123 125 126 124 122 120 118 125 126 124 125 125 125 125 127 131 132 127 116 111 110 110 110 107 104 100 99 99 99 99 100 103 114 139 248 281 296 314 333 166 179 196 208 197 188 201 235 294 305 311
116 118 124 124 124 126 125 121 118 119 127 126 124 123 123 123 119 114 109 107 110 115 114 113 113 111 105 95 86 77 68 59 46 22 345 315 303 298 302 309 317 316 277 241 231 228 230 229 241 268 286 294 306 315
120 124 127 127 129 129 126 120 117 120 122 119 119 118 114 113 115 115 115 113 114 114 114 112 108 100 91 80 39 344 341 346 336 327 321 316 311 304 297 291 287 276 257 241 235 236 242 256 280 301 307 309 311 314
125 125 126 125 126 125 122 122 124 123 121 123 124 122 124 125 121 116 118 121 121 124 125 119 103 51 309 302 309 325 336 332 324 320 318 314 306 297 287 276 266 257 247 241 244 256 273 289 302 310 313 313 313 314
136 138 137 138 138 138 138 136 134 133 136 138 141 145 150 156 161 161 149 154 167 170 175 198 250 270 283 305 321 324 322 324 328 332 345 6 23 28 36 35 256 244 244 247 258 276 291 301 309 312 313 315 315 314